Date String (YYYY-MM-DD hh:mm:ss) UTC,Instrument flags,Ambient pressure (hPa),Sample flow (lpm),Bypass flow (lpm),Sample temperature (°C),Ambient temperature (°C),ASC tube jacket temperature (°C),LED temperature (°C),Box temperature (°C),Sample RH (%),Span deviation,Mass concentration (μg/m³),Mass concentration (μg/m³),Mass concentration (μg/m³)
DateTimeUTC,F1_M11,P_M11,Q1_M11,Q2_M11,T1_M11,T2_M11,T3_M11,T4_M11,T5_M11,U1_M11,ZSPAN_M11,X0_M11,X2_M11,X1_M11
2022-06-03 04:00:00,,0827.1,5.00,0.00,29.9,28.9,00.0,38.7,31.7,24.3,0000.0,0011.28,0006.99,0006.37
2022-06-03 04:01:00,,0827.1,5.00,0.00,29.9,28.9,00.0,38.7,31.8,23.7,0000.0,0011.27,0006.99,0006.36
2022-06-03 04:02:00,,0827.1,5.01,0.00,29.9,28.9,00.0,38.7,31.7,23.2,0000.0,0011.26,0006.95,0006.34
2022-06-03 04:03:00,,0827.1,5.00,0.00,29.9,29.0,00.0,38.8,31.7,23.0,0000.0,0011.97,0006.93,0006.33
2022-06-03 04:04:00,,0827.2,4.98,0.00,29.9,29.0,00.0,38.8,31.8,22.9,0000.0,0012.63,0006.95,0006.32
2022-06-03 04:05:00,,0827.1,5.00,0.00,29.9,29.0,00.0,38.8,31.8,22.9,0000.0,0012.80,0006.99,0006.33
2022-06-03 04:06:00,,0827.5,5.01,0.00,29.9,29.0,00.0,38.8,31.7,22.8,0000.0,0012.78,0007.01,0006.33
2022-06-03 04:07:00,,0827.6,5.00,0.00,29.9,29.0,00.0,38.8,31.7,22.6,0000.0,0013.28,0007.01,0006.33
2022-06-03 04:08:00,,0827.4,5.00,0.00,29.9,29.0,00.0,38.8,31.8,22.3,0000.0,0013.41,0006.97,0006.31
2022-06-03 04:09:00,,0827.1,5.00,0.00,29.9,29.0,00.0,38.8,31.7,22.2,0000.0,0012.98,0006.93,0006.30
2022-06-03 04:10:00,,0827.1,5.01,0.00,29.9,29.0,00.0,38.8,31.8,22.2,0000.0,0012.91,0006.92,0006.29
2022-06-03 04:11:00,,0827.1,5.00,0.00,29.9,29.0,00.0,38.8,31.8,22.0,0000.0,0013.79,0006.88,0006.26
2022-06-03 04:12:00,,0827.1,4.99,0.00,30.0,29.0,00.0,38.8,31.8,22.0,0000.0,0013.85,0006.88,0006.25
2022-06-03 04:13:00,,0827.2,5.00,0.00,30.0,29.0,00.0,38.8,31.8,22.1,0000.0,0013.74,0006.85,0006.25
2022-06-03 04:14:00,,0827.2,4.99,0.00,30.0,29.0,00.0,38.9,31.8,22.0,0000.0,0012.98,0006.83,0006.24
2022-06-03 04:15:00,,0827.1,5.01,0.00,30.0,29.0,00.0,38.9,31.9,22.1,0000.0,0012.23,0006.82,0006.22
2022-06-03 04:16:00,,0827.2,5.00,0.00,30.0,29.1,00.0,38.9,31.9,22.1,0000.0,0012.08,0006.73,0006.18
2022-06-03 04:17:00,,0827.1,5.00,0.00,30.0,29.1,00.0,38.9,31.9,22.1,0000.0,0011.95,0006.67,0006.16
2022-06-03 04:18:00,,0827.1,5.00,0.00,30.0,29.1,00.0,38.9,31.9,22.0,0000.0,0011.52,0006.69,0006.16
2022-06-03 04:19:00,,0827.2,5.01,0.00,30.0,29.1,00.0,38.9,31.9,22.1,0000.1,0011.35,0006.69,0006.15
2022-06-03 04:20:00,,0827.1,5.00,0.00,30.0,29.1,00.0,38.9,31.9,22.1,0000.0,0011.16,0006.70,0006.15
2022-06-03 04:21:00,,0827.2,4.98,0.00,30.0,29.1,00.0,38.9,31.9,22.1,0000.0,0011.18,0006.71,0006.14
2022-06-03 04:22:00,,0827.1,5.02,0.00,30.0,29.1,00.0,38.9,31.9,22.0,0000.1,0010.27,0006.70,0006.15
2022-06-03 04:23:00,,0827.2,5.00,0.00,30.0,29.1,00.0,38.9,31.9,22.0,0000.0,0010.99,0006.69,0006.16
2022-06-03 04:24:00,,0827.2,4.99,0.00,30.0,29.1,00.0,38.9,31.9,22.0,0000.0,0011.74,0006.72,0006.16
2022-06-03 04:25:00,,0827.1,5.01,0.00,30.0,29.1,00.0,38.9,31.9,22.2,0000.0,0012.41,0006.78,0006.17
2022-06-03 04:26:00,,0827.1,4.99,0.00,30.1,29.1,00.0,38.9,31.9,22.3,0000.0,0012.48,0006.77,0006.19
2022-06-03 04:27:00,,0827.1,4.99,0.00,30.1,29.1,00.0,39.0,31.9,22.2,0000.0,0012.71,0006.78,0006.21
2022-06-03 04:28:00,,0827.2,5.00,0.00,30.1,29.1,00.0,39.0,31.9,22.3,0000.0,0013.00,0006.81,0006.21
2022-06-03 04:29:00,,0827.1,5.00,0.00,30.1,29.1,00.0,39.0,31.9,22.4,0000.0,0013.13,0006.82,0006.23
2022-06-03 04:30:00,,0827.1,4.99,0.00,30.1,29.1,00.0,39.0,31.9,22.5,0000.0,0013.17,0006.84,0006.24
2022-06-03 04:31:00,,0827.1,5.00,0.00,30.1,29.1,00.0,39.0,31.9,23.6,0000.0,0013.24,0006.87,0006.26
2022-06-03 04:32:00,,0827.1,5.01,0.00,30.1,29.1,00.0,39.0,31.9,24.9,0000.0,0013.28,0006.87,0006.27
2022-06-03 04:33:00,,0827.1,4.99,0.00,30.1,29.1,00.0,39.0,31.9,23.6,0000.0,0013.39,0006.91,0006.28
2022-06-03 04:34:00,,0827.1,5.00,0.00,30.1,29.1,00.0,39.0,31.9,24.2,0000.0,0012.58,0006.88,0006.27
2022-06-03 04:35:00,,0827.1,5.00,0.00,30.1,29.1,00.0,39.0,31.9,24.1,0000.0,0012.09,0006.84,0006.27
2022-06-03 04:36:00,,0827.1,5.00,0.00,30.1,29.1,00.0,39.0,31.9,23.6,0000.0,0011.59,0006.79,0006.26
2022-06-03 04:37:00,,0827.1,5.01,0.00,30.1,29.1,00.0,39.0,31.9,23.1,0000.0,0011.53,0006.76,0006.25
2022-06-03 04:38:00,,0827.1,4.99,0.00,30.1,29.1,00.0,39.0,31.9,23.2,0000.0,0011.49,0006.76,0006.23
2022-06-03 04:39:00,,0827.1,5.00,0.00,30.0,28.9,00.0,39.0,31.6,23.5,0000.0,0011.67,0006.78,0006.22
2022-06-03 04:40:00,,0827.1,4.99,0.00,29.7,28.5,00.0,38.9,31.1,24.9,0000.0,0011.66,0006.76,0006.20
2022-06-03 04:41:00,,0827.1,5.01,0.00,29.5,28.0,00.0,38.9,30.8,25.6,0000.0,0011.66,0006.72,0006.18
2022-06-03 04:42:00,,0827.0,4.99,0.00,29.2,27.6,00.0,38.8,30.5,25.5,0000.0,0011.96,0006.69,0006.15
2022-06-03 04:43:00,,0827.0,5.01,0.00,29.0,27.2,00.0,38.7,30.2,25.4,0000.0,0012.06,0006.69,0006.15
2022-06-03 04:44:00,,0827.0,4.99,0.00,28.8,26.8,00.0,38.6,30.0,25.2,0000.0,0011.97,0006.69,0006.13
2022-06-03 04:45:00,,0827.0,5.00,0.00,28.6,26.5,00.0,38.4,29.8,25.3,0000.0,0011.87,0006.67,0006.13
2022-06-03 04:46:00,,0827.0,5.01,0.00,28.5,26.3,00.0,38.3,29.9,24.9,0000.0,0011.68,0006.67,0006.13
2022-06-03 04:47:00,,0827.0,5.00,0.00,28.5,26.3,00.0,38.2,29.9,24.9,0000.0,0011.57,0006.69,0006.15
2022-06-03 04:48:00,,0827.0,5.00,0.00,28.4,26.4,00.0,38.2,30.0,24.6,0000.0,0011.64,0006.70,0006.17
2022-06-03 04:49:00,,0827.0,4.99,0.00,28.4,26.6,00.0,38.1,30.1,24.6,0000.0,0011.75,0006.71,0006.18
2022-06-03 04:50:00,,0827.0,5.00,0.00,28.5,26.7,00.0,38.0,30.1,24.6,0000.0,0011.33,0006.69,0006.18
2022-06-03 04:51:00,,0827.0,4.98,0.00,28.5,26.8,00.0,38.0,30.2,25.0,0000.0,0011.22,0006.68,0006.20
2022-06-03 04:52:00,,0826.9,5.00,0.00,28.5,27.0,00.0,37.9,30.3,24.8,0000.0,0011.17,0006.73,0006.25
2022-06-03 04:53:00,,0827.0,5.02,0.00,28.5,27.1,00.0,37.9,30.3,24.6,0000.0,0010.87,0006.79,0006.31
2022-06-03 04:54:00,,0826.9,5.00,0.00,28.6,27.2,00.0,37.9,30.4,25.0,0000.0,0010.66,0006.84,0006.38
2022-06-03 04:55:00,,0826.9,5.00,0.00,28.6,27.3,00.0,37.9,30.4,24.8,0000.0,0010.86,0006.92,0006.46
2022-06-03 04:56:00,,0826.9,4.99,0.00,28.6,27.4,00.0,37.8,30.5,24.5,0000.0,0011.06,0007.04,0006.53
2022-06-03 04:57:00,,0826.9,5.01,0.00,28.7,27.5,00.0,37.8,30.5,24.4,0000.0,0011.02,0007.11,0006.59
2022-06-03 04:58:00,,0827.0,4.99,0.00,28.7,27.5,00.0,37.8,30.5,24.6,0000.0,0011.17,0007.17,0006.65
2022-06-03 04:59:00,,0827.0,4.99,0.00,28.7,27.6,00.0,37.8,30.6,24.9,0000.0,0011.30,0007.28,0006.74
